Temp
5 5 5 5 5 5 5 5 5 5 5 5 5 5 5 5 5 5 6 6 6 6 6 6 6 6 7 7 7 7 7 7 7 8 8 8 8 8 8 8 8 8 8 8 8 8 8 8 8 8 9 9 9 9 9 9 9 9 9 9 9 9 9 10 10 10 10 10 10 10 10 10 11 11 11 11 11 11 11 11 11 11 11 12 12 12
4 4 4 4 4 4 4 4 4 5 5 5 5 5 5 5 5 5 5 5 5 5 6 6 6 6 6 7 7 7 7 7 7 7 7 7 7 7 7 8 8 8 8 8 8 8 8 8 8 8 8 8 8 8 8 8 8 9 9 9 9 9 9 9 9 10 10 10 10 10 10 10 10 11 11 11 11 11 11 11 11 11 11 11 12 12
4 4 4 4 4 4 4 4 4 4 4 5 5 5 5 5 5 5 5 5 5 5 5 6 6 6 6 6 6 6 6 6 7 7 7 7 7 7 7 7 7 8 8 8 8 8 8 8 8 8 8 8 8 8 8 8 8 8 8 8 9 9 9 9 9 9 9 10 10 10 10 10 10 10 11 11 11 11 11 11 11 11 11 11 12 12
4 4 4 4 4 4 4 4 4 4 4 4 4 4 4 4 4 4 5 5 5 5 5 5 5 5 6 6 6 6 6 6 6 6 6 6 7 7 7 7 7 7 8 8 8 8 8 8 8 8 8 8 8 8 8 8 8 8 8 8 8 8 9 9 9 9 9 9 9 10 10 10 10 10 10 10 10 11 11 11 11 11 11 11 12 12
3 4 4 4 4 4 4 4 4 4 4 4 4 4 4 4 4 4 4 5 5 5 5 5 5 5 5 5 5 5 6 6 6 6 6 6 6 7 7 7 7 7 8 8 8 8 8 8 8 8 8 8 8 8 8 8 8 8 8 8 8 8 8 8 9 9 9 9 9 9 9 10 10 10 10 10 10 10 10 11 11 11 11 11 12 12
3 3 3 3 3 3 3 3 3 3 3 3 3 3 4 4 4 4 4 4 4 4 4 4 4 5 5 5 5 5 5 6 6 6 6 6 6 7 7 7 7 7 7 7 8 8 8 8 8 8 8 8 8 8 8 8 8 8 8 8 8 8 8 8 8 9 9 9 9 9 9 9 10 10 10 9 9 10 10 10 10 11 11 11 11 11
2 2 2 2 2 3 3 3 3 3 3 3 3 3 3 4 4 4 4 4 4 4 4 4 4 4 5 5 5 5 6 6 6 6 6 6 6 6 7 7 7 7 7 7 7 7 7 8 8 8 8 8 8 8 8 8 8 8 8 8 8 8 8 8 8 8 8 9 9 9 9 9 9 9 9 9 9 9 10 10 10 10 10 11 11 11
2 2 2 2 2 2 2 3 3 3 3 3 3 3 3 3 3 3 3 3 3 4 4 4 4 4 5 5 5 5 6 6 6 6 6 6 6 6 6 7 7 7 7 7 7 7 7 7 7 7 8 8 8 8 8 8 8 8 8 8 8 8 8 8 8 8 8 9 9 9 9 9 9 9 9 9 9 9 10 10 10 10 10 10 11 11
1 1 2 2 2 2 3 3 3 3 3 3 3 3 3 3 3 3 3 3 3 3 4 4 4 4 5 5 5 5 5 5 5 6 6 6 6 6 6 6 6 6 7 7 7 7 7 7 7 7 7 7 7 7 7 8 8 8 8 8 8 8 8 8 8 8 8 9 9 9 9 9 9 9 9 9 9 9 9 10 10 10 10 10 10 10
1 2 2 2 2 2 2 2 2 2 2 2 2 3 3 3 3 3 3 3 3 3 3 4 4 4 5 5 5 5 5 5 5 5 5 5 6 6 6 6 6 6 6 6 6 7 7 7 7 7 7 7 7 7 7 7 7 7 7 7 7 7 8 8 8 8 8 8 8 8 8 8 8 9 9 9 9 9 9 9 9 9 9 9 10 10
2 2 2 2 2 2 2 2 2 2 2 2 2 3 3 3 3 3 3 3 3 3 3 4 4 4 4 4 4 4 5 5 5 5 5 5 5 5 5 6 6 6 6 6 6 6 6 6 7 7 7 7 7 7 7 7 6 6 7 7 7 7 7 8 8 8 8 8 8 8 8 8 8 8 8 8 8 8 8 8 9 9 9 9 9 10
2 2 1 1 1 1 2 2 2 2 2 2 3 3 3 3 3 3 3 2 2 3 4 4 4 4 4 4 4 4 4 4 4 4 5 5 5 5 5 5 5 5 5 5 5 5 5 6 6 7 7 7 7 7 7 6 6 6 6 6 7 7 7 7 7 7 7 7 7 7 7 7 8 8 8 8 8 8 8 8 8 8 8 9 9 9
1 1 1 1 1 1 2 2 2 2 2 2 3 3 3 3 3 2 1 1 2 3 4 4 4 4 4 4 4 4 4 4 4 4 4 4 4 4 4 4 4 4 4 4 5 5 5 6 6 6 7 7 7 7 7 7 6 6 6 6 7 7 7 7 7 7 7 7 7 7 7 7 7 7 7 7 8 8 8 8 8 8 8 8 8 9
1 1 1 1 1 2 2 2 2 2 2 3 3 3 3 2 1 1 1 2 3 3 4 4 4 3 3 3 4 4 4 4 3 3 3 3 3 4 4 4 4 5 5 5 5 6 6 6 6 7 7 7 7 7 7 7 7 7 7 7 7 7 7 7 7 7 7 7 7 7 7 7 7 7 7 7 7 7 7 8 8 8 8 8 8 8
1 1 1 1 1 1 2 2 2 2 2 2 2 1 1 1 1 1 2 3 3 3 3 3 3 3 3 3 3 3 3 3 3 3 3 4 4 5 5 5 5 5 6 6 6 6 6 6 6 7 7 7 7 7 7 7 7 7 7 7 7 7 7 7 7 7 7 7 7 7 7 7 7 7 7 7 7 7 7 7 7 7 7 8 8 8
1 1 1 1 1 1 1 2 2 2 2 1 1 0 0 1 2 2 3 3 3 3 3 3 3 3 3 3 3 3 3 3 3 4 4 5 5 5 5 5 5 5 5 5 6 6 6 6 6 6 7 7 7 7 7 7 7 7 7 7 7 7 6 6 6 6 6 6 6 6 6 7 7 7 7 7 7 7 7 7 7 7 7 7 7 8
0 0 1 1 1 1 1 1 1 1 0 0 0 1 1 2 2 2 3 3 3 3 3 3 3 3 3 3 3 3 3 4 4 4 4 4 4 4 4 4 4 4 5 5 5 5 6 6 6 6 6 6 6 6 6 6 6 6 6 6 6 6 6 6 6 6 6 6 6 6 6 6 6 7 7 7 7 7 7 7 7 7 7 7 7 7
0 1 1 1 1 1 1 1 0 -0 0 0 1 1 2 2 2 2 2 2 2 3 3 3 2 3 3 3 3 4 4 4 4 3 3 3 4 4 4 4 4 4 4 4 5 5 5 5 6 6 6 6 6 6 6 6 6 6 6 6 6 6 6 6 6 6 6 6 6 6 6 6 6 6 6 6 6 6 6 6 7 7 7 7 7 7
1 1 1 1 1 1 1 0 0 0 1 1 1 1 1 1 1 2 2 2 2 2 2 2 2 2 3 3 3 4 3 3 3 3 2 3 3 3 3 3 4 4 4 4 4 5 5 5 5 5 5 6 6 6 6 6 6 6 6 6 6 6 6 6 6 6 6 6 6 6 6 6 6 6 6 6 6 6 6 6 6 6 6 7 7 7
0 0 1 0 0 0 0 0 0 0 0 0 0 0 1 1 1 1 1 1 1 1 1 1 1 2 2 3 3 3 3 3 2 2 2 3 3 3 3 3 3 4 4 4 4 5 4 4 4 4 5 5 5 5 5 5 5 5 5 5 5 5 6 6 6 6 6 6 6 6 6 6 6 6 6 6 6 6 6 6 6 6 6 6 6 7
0 0 0 0 -0 -0 -0 0 0 0 0 -0 -0 -0 0 0 1 1 1 1 1 1 1 1 1 2 2 2 2 2 2 2 1 1 2 3 3 3 3 3 4 4 4 4 3 3 4 4 4 4 4 4 5 5 5 5 5 5 5 5 5 5 5 6 5 5 5 5 5 5 5 5 5 5 5 5 5 5 5 6 6 6 6 6 6 6
-0 -0 -0 -0 -0 -0 -0 -0 -0 -0 -0 -1 -1 -1 -0 -0 0 0 1 1 0 0 1 1 1 2 2 2 2 2 2 1 1 1 2 2 3 3 3 3 3 3 3 4 4 4 4 4 4 4 5 5 5 5 5 5 5 5 5 5 5 5 5 5 5 5 5 5 5 5 5 5 5 5 5 5 5 5 5 5 5 5 6 6 6 6
-1 -1 -1 -1 -1 -1 -1 -1 -1 -1 -1 -1 -1 -1 -1 -1 -0 -0 -0 -0 -0 0 0 1 1 1 1 1 1 1 1 1 1 2 2 2 3 3 3 3 4 4 4 4 4 4 4 4 4 4 4 5 5 5 5 5 5 5 5 5 5 5 5 5 5 5 5 4 4 4 4 4 4 5 5 5 5 5 5 5 5 5 5 6 6 6
-1 -1 -1 -1 -1 -1 -1 -1 -1 -1 -1 -1 -1 -1 -1 -1 -1 -1 -1 -1 -0 0 1 1 1 1 1 1 1 1 2 2 2 2 2 2 2 3 3 3 3 3 3 3 3 3 3 4 4 4 4 4 4 5 5 5 5 5 5 4 4 4 4 4 4 4 4 4 4 4 4 4 4 4 4 4 4 4 5 5 5 5 5 5 6 6
-2 -2 -2 -2 -2 -2 -1 -1 -1 -1 -1 -1 -1 -1 -1 -1 -1 -1 -1 -0 0 0 1 1 1 1 1 2 2 2 2 2 2 2 2 2 2 2 2 2 2 2 2 3 3 3 3 3 3 4 4 4 4 4 4 4 4 4 4 4 4 4 4 4 3 3 3 3 3 3 3 3 3 4 4 4 4 4 4 5 5 5 5 5 5 6
-2 -2 -2 -2 -1 -1 -1 -1 -1 -1 -1 -1 -1 -1 -1 -1 -1 -1 -0 0 0 1 1 1 1 2 2 2 2 2 2 2 2 1 1 1 2 2 2 2 2 2 2 2 3 3 3 3 3 3 3 3 3 3 3 3 3 4 4 4 4 4 3 3 3 3 3 3 3 3 3 3 3 4 4 4 4 4 5 5 5 5 5 5 5 6
-2 -1 -1 -1 -1 -1 -1 -1 -1 -2 -2 -2 -1 -1 -1 -1 -1 -1 -0 0 0 1 1 1 1 1 2 2 2 2 2 2 2 1 1 1 1 2 2 2 2 2 2 2 2 2 2 2 2 2 2 3 3 3 3 3 4 3 3 3 3 3 2 2 2 3 3 3 3 3 3 4 4 4 4 4 5 5 5 5 5 5 5 5 5 6
-2 -1 -1 -1 -1 -2 -2 -2 -2 -2 -2 -2 -2 -1 -1 -1 -1 -1 -0 0 0 0 1 1 1 1 1 1 2 2 2 1 1 1 1 0 1 1 1 1 1 1 1 1 1 1 2 2 2 2 2 3 3 3 3 3 3 2 2 2 2 2 2 2 2 3 3 3 3 4 4 4 5 5 5 5 5 5 6 6 6 6 6 6 6 6
-2 -2 -2 -2 -2 -2 -2 -2 -2 -2 -2 -2 -2 -2 -1 -1 -1 -1 -1 -0 -0 -0 0 1 1 1 1 1 1 1 1 1 1 1 0 0 1 1 1 1 1 1 1 1 1 2 2 2 2 2 2 3 2 2 2 2 2 2 2 2 2 2 2 2 3 3 3 4 4 5 5 5 6 6 6 6 6 6 7 7 7 7 7 7 7 7
-2 -2 -2 -2 -2 -2 -2 -2 -2 -2 -2 -2 -2 -2 -1 -1 -1 -1 -1 -1 -1 -0 0 1 1 1 1 1 1 1 1 1 1 0 -0 -0 0 1 1 1 1 1 1 1 1 1 2 2 2 2 2 2 2 1 1 1 1 1 1 1 2 2 2 2 2 3 3 4 5 6 7 7 7 7 7 7 7 7 7 8 8 8 8 8 8 8
-2 -2 -2 -2 -3 -3 -3 -3 -3 -2 -2 -2 -2 -2 -1 -1 -1 -1 -1 -1 -1 -1 -0 0 0 0 0 0 1 1 1 1 1 0 -1 -1 -0 0 0 0 0 0 0 0 0 1 1 2 2 2 2 2 2 2 2 2 2 2 1 1 1 1 1 1 2 2 3 5 6 7 7 7 7 7 7 8 8 8 8 8 8 8 8 8 8 8
-3 -3 -3 -3 -3 -3 -3 -3 -3 -2 -2 -2 -2 -2 -1 -1 -1 -1 -1 -1 -1 -1 -1 -1 -0 -0 0 0 0 1 1 1 1 0 -1 -1 -1 -0 -0 -0 -0 -0 -0 -0 -0 0 1 1 2 2 2 2 2 2 2 2 1 1 1 1 1 1 1 1 1 2 4 5 6 7 7 7 7 7 7 8 8 8 8 8 7 7 7 7 7 7
-3 -3 -3 -3 -3 -3 -3 -3 -2 -2 -2 -2 -2 -2 -1 -1 -1 -1 -1 -1 -1 -1 -1 -1 -1 -1 -0 0 0 0 0 0 0 -0 -1 -1 -1 -1 -1 -1 -1 -0 -1 -1 -0 -0 0 1 1 1 1 1 1 1 1 1 1 1 1 0 0 0 1 1 1 2 4 5 5 5 6 6 6 6 7 7 7 7 7 7 7 7 7 7 6 6
-3 -3 -3 -3 -3 -3 -3 -2 -2 -2 -2 -2 -2 -2 -2 -2 -2 -2 -2 -2 -2 -2 -2 -1 -1 -1 -1 0 0 0 0 0 -0 -1 -1 -1 -1 -1 -1 -1 -1 -1 -1 -1 -0 -0 0 0 1 1 1 1 1 1 1 1 1 1 1 0 -0 -0 0 1 1 2 4 4 4 4 4 4 4 5 5 5 5 6 6 6 6 6 6 6 6 6
-3 -3 -3 -3 -3 -3 -3 -2 -2 -2 -2 -2 -2 -2 -2 -2 -2 -2 -2 -2 -2 -2 -2 -2 -2 -1 -1 -1 -0 -0 -0 -0 -1 -1 -1 -2 -2 -2 -1 -1 -1 -1 -1 -1 -0 -0 -0 0 1 1 1 1 1 1 1 1 1 1 1 0 0 0 0 1 1 2 3 3 3 3 3 3 3 3 4 4 4 4 5 5 5 5 5 6 6 6
-3 -3 -3 -3 -3 -3 -3 -2 -2 -2 -2 -2 -2 -2 -2 -2 -2 -2 -2 -2 -2 -2 -2 -2 -2 -2 -2 -1 -1 -1 -1 -1 -1 -1 -2 -2 -2 -2 -2 -2 -1 -1 -1 -1 -1 -1 -0 -0 0 0 0 0 1 1 1 1 0 0 0 0 0 0 1 1 1 2 3 3 3 3 3 3 3 3 3 3 3 4 4 4 4 4 5 5 5 5
-3 -3 -3 -3 -3 -3 -3 -2 -2 -2 -2 -2 -2 -2 -2 -2 -2 -2 -2 -2 -2 -2 -2 -2 -2 -2 -2 -2 -2 -1 -1 -1 -2 -2 -2 -2 -2 -2 -2 -2 -2 -2 -2 -1 -1 -1 -1 -1 -0 -0 -0 0 0 1 1 1 0 0 0 -0 0 0 1 1 1 2 2 2 2 2 2 2 2 2 3 3 3 3 3 3 4 4 4 4 4 4
-3 -3 -3 -3 -3 -3 -3 -3 -3 -3 -2 -2 -2 -2 -3 -3 -3 -3 -2 -2 -2 -2 -2 -2 -2 -2 -2 -2 -2 -2 -2 -2 -2 -2 -2 -2 -3 -3 -3 -2 -2 -2 -2 -2 -2 -2 -1 -1 -1 -1 -0 -0 0 0 1 1 1 1 0 -0 -0 0 1 1 1 1 2 2 2 2 2 2 2 2 2 2 2 2 2 3 3 3 3 3 4 4
-3 -3 -3 -3 -3 -3 -3 -3 -3 -3 -3 -3 -3 -3 -3 -3 -3 -3 -3 -2 -2 -2 -2 -2 -2 -2 -2 -2 -2 -2 -2 -2 -2 -2 -2 -3 -3 -3 -3 -3 -2 -2 -2 -2 -2 -2 -2 -2 -1 -1 -1 -1 -0 -0 0 0 0 0 0 -0 -0 0 1 1 1 1 2 2 1 1 1 1 1 1 1 1 1 1 2 2 2 2 3 3 3 3
-4 -4 -3 -3 -3 -3 -3 -3 -3 -3 -3 -3 -3 -3 -3 -3 -3 -2 -2 -2 -2 -2 -2 -2 -2 -2 -2 -2 -2 -2 -2 -2 -2 -2 -2 -3 -3 -3 -3 -3 -3 -3 -3 -3 -3 -3 -3 -2 -2 -1 -1 -1 -1 -0 -0 0 0 0 0 0 0 -0 0 0 0 1 1 1 1 1 1 1 1 1 1 1 1 1 1 1 1 1 2 2 2 2
-4 -4 -4 -4 -4 -4 -3 -3 -3 -3 -3 -3 -3 -3 -3 -3 -2 -2 -2 -2 -2 -2 -2 -2 -2 -2 -2 -2 -2 -2 -2 -2 -2 -2 -2 -3 -3 -3 -3 -3 -3 -3 -3 -3 -3 -3 -3 -3 -2 -2 -2 -1 -1 -1 -0 0 0 0 0 0 -0 -1 -1 -0 -0 0 1 1 1 1 1 0 0 0 0 0 0 1 1 1 1 1 1 1 1 1
-4 -4 -4 -4 -4 -4 -4 -3 -3 -3 -3 -3 -3 -3 -3 -3 -2 -2 -2 -2 -2 -2 -2 -2 -2 -2 -2 -2 -2 -2 -2 -2 -2 -2 -3 -3 -3 -3 -3 -4 -4 -4 -4 -4 -4 -4 -3 -3 -3 -3 -2 -2 -1 -1 -0 0 0 0 0 -0 -1 -1 -1 -1 -1 -0 -0 0 0 0 0 0 0 0 0 0 0 0 0 0 1 1 1 1 1 1
-4 -4 -4 -4 -4 -4 -4 -4 -3 -3 -3 -3 -3 -3 -3 -3 -2 -2 -2 -2 -2 -2 -2 -2 -2 -2 -2 -2 -2 -2 -2 -2 -2 -3 -3 -3 -3 -4 -4 -4 -4 -4 -4 -4 -4 -4 -4 -3 -3 -3 -2 -2 -2 -1 -0 0 0 -0 -1 -1 -1 -1 -0 -1 -1 -1 -1 -0 -0 -0 -0 -0 -0 -0 -0 -0 -0 -0 -0 0 0 0 0 0 1 1
-4 -4 -4 -4 -4 -4 -4 -4 -4 -3 -3 -3 -3 -3 -3 -3 -3 -2 -2 -2 -2 -2 -2 -2 -2 -2 -2 -2 -2 -2 -2 -2 -2 -3 -3 -4 -4 -4 -5 -5 -5 -5 -5 -5 -4 -4 -4 -4 -3 -3 -2 -2 -2 -1 -0 0 -0 -1 -1 -1 -1 -1 -1 -1 -2 -1 -1 -1 -1 -0 -0 -0 -0 -0 -0 -0 -0 -0 -0 -0 -0 -0 -0 0 0 0
-4 -4 -4 -4 -4 -4 -4 -4 -4 -4 -3 -3 -3 -3 -3 -3 -3 -3 -3 -3 -3 -2 -2 -3 -3 -2 -2 -2 -2 -2 -2 -2 -2 -3 -3 -4 -4 -5 -5 -5 -5 -5 -5 -5 -5 -5 -4 -4 -3 -3 -3 -2 -2 -1 -0 -0 -0 -1 -2 -2 -2 -2 -2 -2 -2 -2 -1 -1 -1 -1 -1 -0 -0 -0 -1 -1 -1 -1 -1 -1 -1 -1 -0 -0 -0 -0
-5 -4 -4 -4 -4 -4 -4 -4 -4 -4 -4 -3 -3 -3 -3 -3 -3 -3 -3 -3 -3 -3 -3 -3 -3 -2 -2 -2 -2 -2 -2 -2 -2 -3 -3 -4 -4 -5 -5 -5 -5 -5 -5 -5 -5 -5 -5 -4 -4 -4 -3 -2 -2 -1 -1 -1 -1 -2 -2 -3 -3 -3 -3 -2 -2 -2 -1 -1 -1 -1 -1 -1 -0 -1 -1 -1 -1 -1 -1 -1 -1 -1 -1 -1 -0 -0
-5 -5 -4 -4 -4 -4 -4 -4 -4 -4 -3 -3 -3 -3 -3 -3 -3 -3 -3 -3 -3 -3 -3 -3 -3 -2 -2 -2 -2 -2 -2 -2 -2 -3 -3 -4 -4 -4 -5 -5 -5 -5 -5 -5 -5 -5 -5 -5 -5 -4 -4 -3 -2 -2 -2 -2 -2 -2 -2 -3 -3 -3 -3 -3 -2 -2 -1 -1 -1 -1 -1 -1 -1 -1 -1 -1 -2 -2 -2 -2 -1 -1 -1 -1 -1 -0
-5 -5 -5 -4 -4 -4 -4 -4 -4 -4 -4 -3 -3 -3 -3 -3 -3 -3 -3 -3 -3 -3 -3 -3 -3 -2 -2 -2 -2 -2 -2 -2 -3 -3 -3 -4 -4 -5 -5 -5 -5 -5 -5 -5 -5 -5 -5 -5 -5 -5 -4 -4 -3 -3 -3 -3 -3 -3 -3 -3 -3 -3 -3 -3 -3 -2 -2 -1 -1 -1 -1 -1 -1 -1 -1 -1 -1 -2 -2 -2 -2 -1 -1 -1 -1 -0
-5 -5 -5 -5 -4 -4 -4 -4 -4 -4 -4 -4 -3 -3 -3 -3 -3 -3 -3 -3 -3 -3 -3 -3 -3 -2 -2 -2 -2 -2 -3 -3 -3 -4 -4 -4 -5 -5 -5 -5 -5 -5 -5 -5 -5 -5 -5 -5 -5 -5 -5 -4 -4 -3 -3 -3 -3 -3 -3 -3 -3 -3 -3 -3 -3 -3 -2 -2 -1 -1 -1 -1 -1 -1 -1 -1 -1 -2 -2 -3 -2 -2 -1 -1 -1 -0
-5 -5 -5 -5 -5 -4 -4 -4 -4 -4 -4 -4 -4 -3 -3 -3 -3 -3 -3 -3 -3 -3 -3 -3 -3 -3 -2 -2 -2 -3 -3 -3 -4 -4 -4 -5 -5 -5 -5 -5 -5 -5 -5 -4 -4 -4 -4 -5 -5 -5 -5 -5 -5 -4 -4 -4 -4 -4 -4 -4 -4 -4 -4 -3 -3 -3 -2 -2 -2 -1 -1 -1 -1 -1 -1 -1 -1 -2 -2 -3 -3 -2 -2 -1 -1 -0
-5 -5 -5 -5 -5 -5 -5 -4 -4 -4 -4 -4 -4 -3 -3 -3 -3 -3 -3 -3 -3 -3 -3 -3 -3 -3 -2 -2 -3 -3 -3 -4 -4 -4 -5 -5 -5 -5 -5 -5 -5 -5 -4 -4 -4 -4 -4 -4 -5 -5 -5 -5 -5 -5 -5 -4 -4 -4 -4 -4 -4 -4 -4 -4 -3 -3 -2 -2 -2 -2 -1 -1 -1 -1 -1 -1 -1 -1 -2 -2 -3 -3 -2 -1 -1 -1
Height
654 652 650 650 648 645 642 641 640 638 634 632 630 628 625 624 622 620 618 617 615 613 610 608 606 604 601 599 598 596 595 593 592 590 589 587 586 584 583 582 581 580 579 578 577 576 574 573 571 570 569 569 568 568 567 567 566 566 565 565 564 564 563 563 562 561 560 560 559 558 557 557 557 557 558 558 559 559 559 560 561 561 562 563 564 565
654 651 650 649 647 644 640 639 639 637 633 630 628 626 624 622 620 618 616 614 613 611 609 606 604 602 599 597 596 594 593 591 589 588 586 585 584 582 581 580 579 578 576 575 574 573 572 570 569 568 566 565 565 565 564 564 564 563 563 562 562 561 560 560 559 559 558 557 557 556 555 554 554 554 554 555 555 556 557 557 558 559 559 560 561 562
653 651 649 647 646 643 640 637 636 635 633 629 627 625 623 621 618 616 614 612 610 609 607 605 602 600 598 595 594 592 590 589 587 586 584 583 581 580 578 577 576 574 574 572 571 570 569 568 566 565 563 562 562 562 561 561 561 560 560 559 559 558 558 557 556 556 555 554 554 554 553 553 552 552 552 552 553 553 554 554 555 555 556 557 558 559
653 650 647 646 644 641 639 637 634 633 631 629 626 624 622 620 617 614 613 611 609 607 605 603 601 599 596 594 592 590 588 587 585 583 582 580 579 577 576 574 573 572 570 569 568 567 566 565 564 563 561 560 559 559 559 558 558 557 557 556 556 555 555 554 554 553 552 552 551 551 550 550 549 549 549 549 550 550 551 551 552 553 553 554 555 556
652 649 646 644 642 639 637 636 634 632 629 627 625 623 621 619 616 613 611 609 607 605 603 601 599 597 595 592 589 588 586 584 582 581 579 577 576 574 573 571 570 569 567 566 565 564 563 563 562 560 559 558 557 556 556 555 555 554 554 554 553 553 552 551 551 550 549 549 548 548 547 547 547 546 546 547 547 548 548 549 549 549 550 551 552 553
650 648 645 643 641 638 636 634 633 631 628 625 623 621 619 617 615 612 610 608 606 604 601 599 598 595 593 590 588 585 583 581 579 578 576 574 573 571 570 569 567 566 564 564 562 561 560 560 559 558 556 555 554 554 553 553 552 552 551 551 550 549 549 549 548 547 547 546 545 545 544 544 544 544 544 544 544 544 545 545 546 546 547 548 549 549
650 648 645 643 640 637 635 633 631 630 628 624 621 619 617 615 613 611 609 607 604 602 599 597 595 593 590 588 585 583 580 578 577 575 573 572 570 569 567 566 564 563 562 561 559 559 558 557 556 555 554 553 552 551 550 550 549 549 548 548 547 547 546 546 545 544 544 543 543 542 542 541 541 541 541 541 542 542 542 543 543 543 544 544 545 546
649 647 645 642 639 636 634 632 630 629 627 624 621 618 615 613 611 609 607 605 603 600 598 595 592 590 588 585 583 581 578 576 574 572 571 569 568 566 564 563 562 560 559 558 557 556 555 554 553 552 551 550 549 548 548 547 546 546 545 544 544 544 543 543 542 542 541 540 540 539 539 539 539 539 539 539 539 539 540 540 540 540 541 541 542 543
648 645 643 641 639 635 632 629 628 628 626 623 620 617 614 611 609 606 604 601 599 598 596 593 590 587 585 583 581 579 577 575 573 571 569 567 565 564 562 561 559 558 557 555 554 553 552 551 550 549 548 547 546 545 545 544 543 543 542 541 541 541 540 540 539 539 538 537 537 537 537 536 536 536 536 536 537 537 537 537 537 537 538 538 539 539
646 643 640 638 637 635 631 628 625 625 624 622 619 617 614 610 606 603 600 597 596 595 593 591 588 585 582 581 579 578 575 573 571 569 567 565 564 562 560 559 557 555 554 553 551 550 549 548 547 546 545 544 543 543 542 541 540 539 539 538 538 538 537 537 537 536 535 535 535 534 534 534 534 534 534 534 534 534 534 534 534 534 535 535 536 537
643 641 639 636 634 632 631 628 624 623 621 619 617 614 612 609 605 601 597 594 593 592 590 588 586 584 581 579 577 575 574 571 569 567 565 563 561 559 557 556 554 552 551 549 548 547 546 545 544 543 542 541 540 540 539 538 537 537 536 536 535 535 535 535 534 534 534 533 533 533 533 533 533 532 532 531 531 531 531 531 532 532 532 533 533 534
642 639 637 635 633 630 629 626 624 622 620 617 614 610 607 605 603 600 597 594 592 589 587 585 584 582 580 578 575 573 572 569 567 564 562 560 559 557 555 553 552 550 549 547 546 545 544 543 542 541 540 539 538 537 536 535 535 534 534 534 533 533 533 533 532 532 532 531 531 531 531 531 530 530 529 529 528 528 528 529 529 529 529 530 530 531
640 638 636 634 631 629 627 625 623 620 618 615 612 608 604 602 601 599 597 594 591 588 585 583 581 579 578 577 574 572 569 567 564 562 560 558 557 555 554 552 550 549 547 545 544 543 542 541 539 539 538 536 535 534 533 533 532 531 531 531 530 530 530 530 530 529 529 529 529 529 529 528 528 528 527 527 526 525 525 525 526 526 526 527 527 528
637 635 633 631 629 628 626 624 622 619 616 613 609 606 604 602 600 599 596 593 590 587 585 582 579 577 576 574 572 570 568 565 562 560 559 557 555 554 553 551 549 547 545 544 542 541 540 539 537 536 534 534 532 531 530 530 529 529 529 528 528 528 528 527 527 527 526 526 526 525 525 525 525 525 525 524 524 523 523 523 523 523 523 524 524 524
635 633 631 629 627 626 624 623 620 617 613 610 608 606 604 602 600 598 595 591 588 585 584 581 578 576 574 572 570 568 565 563 560 558 556 554 553 552 551 549 547 545 544 542 540 538 538 536 535 533 532 530 529 528 528 527 527 527 526 526 526 525 525 525 525 524 524 524 523 523 523 522 522 522 522 521 521 521 520 520 520 520 520 520 521 521
633 632 630 628 625 624 622 621 618 614 611 609 608 606 604 601 599 596 594 590 587 585 583 580 577 574 570 568 567 566 564 561 559 556 554 551 550 550 550 548 546 544 542 540 539 537 535 534 532 531 529 528 526 526 525 525 524 524 524 524 524 523 523 523 522 522 521 521 520 520 520 519 519 519 519 518 518 518 518 518 517 517 517 517 518 518
632 631 629 627 624 622 620 619 616 614 611 609 607 605 603 601 598 596 593 590 587 584 582 579 576 572 568 565 564 564 563 560 558 555 553 550 549 548 549 548 545 542 540 539 537 535 533 531 530 528 527 525 524 524 523 523 523 522 522 521 521 521 520 520 520 519 519 518 518 518 517 517 516 516 515 515 515 515 515 514 514 514 514 514 514 515
632 630 628 625 623 620 618 617 615 613 610 608 606 604 602 600 598 595 592 589 587 584 580 578 575 572 568 564 561 561 562 560 558 555 553 550 547 546 547 546 544 541 539 536 534 533 531 529 528 526 524 523 523 522 521 521 520 520 519 519 519 518 518 518 517 516 516 515 515 515 514 514 514 513 512 512 512 511 511 511 511 511 511 511 512 512
631 629 627 624 622 619 617 615 613 611 609 608 606 604 601 599 596 594 591 588 586 583 580 577 574 570 567 562 559 559 560 560 558 555 552 549 546 544 544 544 542 539 537 534 532 530 529 527 525 524 523 522 521 520 519 519 519 518 517 517 516 516 515 515 514 514 513 513 512 512 511 511 510 510 509 509 508 508 508 507 507 507 508 508 508 509
629 627 625 623 621 618 616 614 612 611 609 608 606 604 600 597 594 592 589 587 584 582 579 576 571 567 564 560 558 558 559 559 558 555 551 547 544 542 542 542 540 537 534 532 530 529 527 526 524 523 522 521 520 519 518 517 516 516 515 514 514 513 513 512 512 511 510 510 509 509 508 508 507 506 506 505 505 505 504 504 504 504 504 504 504 505
627 624 623 622 620 617 614 612 611 610 609 608 605 603 599 595 592 589 587 585 582 579 577 573 569 565 562 560 558 557 558 559 557 554 550 546 542 540 540 540 538 535 532 529 528 527 526 525 523 522 520 519 518 517 516 515 514 514 513 512 511 511 510 510 509 508 507 506 506 505 505 504 504 503 502 502 501 501 500 500 500 500 500 500 500 501
625 622 620 620 619 616 613 611 609 609 608 606 604 601 597 594 590 587 585 583 580 577 574 571 567 564 562 560 558 556 557 557 555 553 549 545 540 537 538 538 536 533 530 528 526 526 525 524 522 520 519 518 516 515 514 513 512 511 510 510 509 509 508 507 506 505 504 503 502 501 501 500 500 499 499 498 498 497 497 496 496 496 496 496 497 497
624 621 619 618 616 614 612 610 608 606 606 605 603 600 596 593 590 587 584 582 579 575 572 569 566 563 561 559 556 555 554 554 554 552 549 544 539 535 535 536 534 531 528 526 525 524 524 522 521 519 517 516 514 513 511 510 510 509 508 507 507 506 505 504 503 502 501 500 499 498 497 496 496 495 495 495 494 494 493 493 493 493 493 493 493 494
622 619 618 616 614 612 610 608 606 605 604 602 600 598 595 593 590 587 584 581 578 574 571 567 564 560 557 555 554 553 552 552 552 551 548 544 539 535 534 534 533 530 527 526 525 524 522 520 519 517 516 514 512 511 510 508 507 507 506 505 505 504 503 502 500 499 498 496 495 494 493 492 491 491 490 490 490 490 489 489 489 489 490 490 490 490
620 618 616 614 613 611 609 607 605 604 602 600 598 595 592 590 587 584 581 579 575 573 569 566 562 557 554 552 551 550 549 550 550 549 547 543 538 534 533 534 533 530 526 524 524 523 522 519 517 515 514 512 510 509 508 506 505 505 504 504 503 502 501 499 498 496 495 493 491 490 489 488 487 486 486 486 485 485 485 485 486 486 486 487 487 487
618 616 614 613 611 609 608 605 603 601 600 598 596 593 590 587 584 581 578 575 573 571 568 564 559 554 551 550 549 548 547 548 548 548 546 543 538 534 532 532 532 529 526 524 523 522 520 518 516 514 513 511 509 507 506 505 504 503 503 501 500 500 498 497 495 494 491 490 488 486 485 484 483 482 482 481 481 481 481 482 482 483 483 484 484 484
617 615 613 611 609 607 604 602 600 598 597 595 593 591 589 586 583 579 576 573 571 569 566 561 556 552 549 548 547 546 546 546 546 546 545 543 538 533 531 531 531 529 526 523 521 521 519 517 515 513 511 509 507 505 504 503 502 501 501 500 499 497 496 494 492 490 488 486 484 482 481 480 479 478 478 477 477 477 477 478 478 479 480 480 480 480
614 613 610 608 606 604 601 599 597 595 594 592 590 589 587 584 581 578 574 572 570 568 564 560 556 552 549 547 546 545 545 545 544 544 543 541 538 533 530 530 530 529 526 523 520 519 518 516 514 512 510 507 505 504 503 502 501 500 499 498 497 495 494 492 490 487 485 482 480 478 477 476 475 474 474 473 473 473 474 474 475 475 476 477 477 476
612 609 607 605 603 601 599 597 594 593 591 589 588 586 585 583 580 577 574 572 570 567 563 559 555 553 550 547 545 544 543 543 543 543 542 540 536 533 531 530 529 528 526 523 519 517 515 514 512 510 507 505 504 503 502 501 500 499 498 496 495 493 491 490 487 485 481 478 475 474 472 472 471 470 470 470 469 469 470 470 471 472 472 472 472 472
609 606 604 602 600 599 597 594 592 590 589 587 585 584 582 580 578 576 574 571 569 565 561 558 555 553 551 549 545 543 540 540 541 541 541 539 536 532 531 530 529 528 527 524 519 515 511 510 509 508 506 505 503 502 501 500 500 498 496 495 493 491 489 488 485 482 478 474 471 469 468 468 467 467 467 466 466 466 467 467 468 469 469 469 469 470
606 604 602 600 598 596 594 593 590 588 586 584 583 581 579 578 576 574 572 570 567 564 561 558 556 554 552 550 546 541 538 538 539 541 540 539 535 532 531 530 528 527 527 526 522 516 510 507 507 507 506 505 504 502 501 500 499 498 496 494 492 490 488 486 483 480 476 472 469 467 465 465 465 465 464 464 464 465 465 465 466 466 467 467 468 469
605 603 601 599 597 595 593 590 588 586 584 582 580 579 577 575 574 572 570 568 566 564 562 559 557 554 552 550 546 541 537 537 538 540 540 538 534 531 530 529 528 526 526 526 524 520 514 508 506 506 506 505 504 502 501 500 498 497 495 494 491 489 486 484 482 479 475 471 468 466 465 464 464 463 463 464 464 464 465 465 465 466 466 467 468 469
604 602 600 597 595 593 591 589 586 584 582 580 578 576 575 573 572 570 569 567 566 564 563 560 557 554 550 547 544 540 538 537 538 539 539 537 534 531 529 529 527 525 524 524 523 521 517 512 508 506 506 505 504 502 500 499 497 496 495 493 490 488 485 483 481 479 476 472 468 466 465 465 465 464 464 465 465 465 465 466 466 466 467 468 469 469
603 601 598 596 594 591 589 587 585 583 580 578 576 575 573 571 569 568 566 565 564 563 562 559 556 552 549 544 541 538 536 536 537 538 538 537 534 530 528 527 526 524 523 522 520 518 516 513 510 508 505 503 502 501 500 498 496 495 494 492 490 488 485 483 481 480 478 473 469 467 467 467 466 466 466 467 467 468 468 468 468 468 468 468 469 469
601 599 597 594 592 589 587 585 583 581 579 577 575 573 571 570 568 566 564 563 562 560 559 557 554 552 548 544 540 536 534 534 536 537 537 536 534 530 528 526 525 524 523 520 519 517 514 512 510 509 506 503 501 500 498 497 495 494 493 492 490 488 486 484 482 480 479 475 471 469 469 469 469 469 469 470 470 470 470 471 471 471 470 470 470 470
600 598 595 593 591 588 586 584 581 579 577 575 574 572 570 568 566 564 563 561 560 558 556 554 551 549 546 544 540 537 534 534 534 535 535 534 532 530 527 524 523 523 522 519 518 516 514 511 510 509 507 504 501 498 497 496 495 493 492 491 490 488 486 485 483 481 480 476 473 471 471 471 472 472 472 473 473 473 473 473 473 474 474 474 473 472
599 597 594 592 589 587 584 582 580 578 576 574 572 570 569 567 565 563 561 559 557 555 553 550 547 545 544 542 540 537 535 534 533 533 532 531 530 529 526 523 522 522 521 519 517 515 514 512 510 508 506 504 501 499 496 495 494 493 492 490 490 488 487 485 483 482 480 477 474 473 474 474 474 475 475 475 475 475 475 476 476 477 477 477 477 477
598 595 593 591 589 586 584 581 579 577 575 573 571 569 567 565 563 561 559 556 554 552 549 546 544 542 541 539 538 536 534 533 531 530 529 529 528 527 524 522 520 520 519 518 517 515 514 512 510 508 505 503 501 499 497 496 494 493 491 490 490 489 487 486 484 483 481 479 476 475 475 476 476 477 477 478 477 478 478 479 480 480 480 480 481 481
597 594 592 589 588 585 583 580 578 576 574 572 569 567 565 563 560 558 556 553 551 548 546 544 542 540 538 537 535 534 532 530 529 528 527 526 525 524 523 521 519 518 517 517 516 515 514 512 510 508 505 503 501 499 498 497 495 493 492 491 490 489 488 487 485 484 482 480 478 477 478 478 479 479 480 480 480 480 481 482 483 483 483 483 484 485
596 593 591 589 587 584 582 580 577 575 573 570 568 565 563 560 558 555 553 550 548 546 543 541 540 538 536 534 533 531 529 528 527 525 524 523 523 522 521 519 518 516 516 515 514 514 513 511 510 508 506 504 502 500 498 496 495 494 493 492 491 490 489 488 486 485 484 482 480 480 480 480 481 481 482 483 483 483 484 485 485 486 486 486 486 488
595 592 589 587 585 583 581 579 576 574 571 569 566 563 561 559 556 553 550 548 545 543 541 539 537 535 534 532 530 529 527 526 524 523 522 521 520 519 519 518 516 515 514 514 513 512 511 510 509 507 505 504 502 500 498 496 495 494 494 493 492 491 490 489 488 486 485 483 482 482 482 482 483 484 485 485 486 486 487 487 488 489 489 489 489 490
594 591 589 586 584 582 579 577 574 572 570 567 564 562 559 557 554 551 549 545 543 541 539 538 536 534 531 529 528 526 525 524 522 521 520 519 519 518 517 516 515 514 514 513 512 510 510 509 508 506 505 503 502 500 497 495 494 494 493 493 493 492 491 490 489 488 486 485 484 484 484 484 485 486 487 488 489 489 490 490 490 491 492 492 492 492
593 590 588 585 583 580 578 575 573 570 568 566 563 560 558 556 553 550 547 544 541 539 538 536 534 533 530 527 525 524 523 521 520 519 519 518 517 517 516 515 514 514 513 512 510 509 508 507 506 505 503 502 500 499 496 494 493 493 493 493 493 493 492 491 490 489 488 487 486 486 486 486 487 488 489 490 491 492 492 493 493 494 494 495 495 495
592 589 587 584 582 579 576 574 571 569 567 564 561 559 556 554 551 549 546 543 540 538 537 535 533 531 529 526 524 522 521 519 519 518 517 517 516 515 515 514 513 513 512 511 510 508 507 506 504 503 502 501 499 498 495 494 493 493 493 493 494 493 493 492 491 490 490 489 488 488 488 488 489 490 491 492 493 494 495 495 496 497 497 498 498 499
591 588 585 583 580 578 575 573 570 568 565 563 560 557 555 552 550 547 544 542 539 537 536 534 532 529 527 524 522 521 519 518 518 517 516 516 515 514 514 513 512 511 511 510 509 508 506 505 503 501 500 499 498 496 495 493 493 493 493 494 494 494 494 493 492 491 491 490 490 490 490 490 490 491 493 495 496 497 498 499 500 500 501 501 501 502
590 587 584 582 579 577 574 571 569 566 564 561 559 556 553 550 548 546 543 541 539 537 535 533 531 529 526 524 522 520 519 517 517 516 516 515 514 514 513 512 511 510 510 509 508 507 506 505 503 501 500 498 496 495 494 493 493 493 494 494 494 495 495 494 493 493 492 492 492 492 492 492 492 493 495 497 499 500 501 502 503 504 504 505 505 505
589 586 583 581 578 575 573 570 568 565 562 559 557 554 552 549 547 544 542 540 538 536 534 532 530 528 526 524 521 520 518 517 516 516 515 514 514 513 512 511 510 510 509 508 507 506 505 504 503 501 499 497 495 495 494 494 494 494 494 495 495 495 495 495 495 494 493 493 493 494 494 494 494 496 498 500 502 503 505 505 506 507 507 508 508 509
588 585 582 580 577 574 571 569 566 564 561 558 555 553 550 548 546 543 541 539 537 535 533 531 529 527 525 523 521 520 519 518 517 516 515 514 514 513 511 510 510 509 508 507 506 505 505 503 502 500 499 497 496 495 495 495 495 495 495 495 495 496 496 496 495 495 495 495 495 495 495 495 496 498 500 502 504 506 508 509 509 510 510 511 511 512
587 584 581 579 576 573 570 568 565 563 560 557 554 551 549 546 544 543 541 539 537 534 532 530 528 526 524 522 521 519 519 518 517 516 516 514 514 512 511 510 509 508 507 506 505 505 504 503 502 500 499 498 497 496 496 496 496 496 496 496 497 497 497 497 497 496 496 496 496 497 497 498 499 500 501 503 506 509 510 512 513 513 514 514 514 515
586 583 581 578 575 573 570 567 564 562 559 556 553 550 547 545 543 542 540 538 536 534 532 530 528 526 524 522 521 520 519 519 518 517 516 515 514 513 511 510 509 507 506 505 504 504 503 503 502 501 500 499 499 498 498 497 497 497 497 498 498 498 498 498 498 497 497 498 498 499 500 501 502 502 503 505 508 510 513 514 515 516 517 517 517 518
584 582 579 577 574 572 569 566 564 561 558 555 552 549 547 544 543 541 539 537 535 533 531 529 528 526 524 522 521 520 520 519 519 518 517 516 514 513 512 510 509 507 506 504 503 503 502 502 501 501 500 500 500 500 499 499 499 499 499 500 500 500 500 499 499 499 499 499 500 501 502 503 505 505 506 508 510 512 514 517 518 519 519 520 520 521
Wind_Speed
29 29 30 30 32 32 33 33 34 35 36 36 35 34 34 33 33 34 34 34 33 33 32 32 32 32 33 33 33 34 34 35 35 35 35 36 36 36 37 37 37 37 37 38 38 39 40 41 40 40 39 37 36 34 33 31 31 31 30 31 31 32 32 32 31 31 30 31 31 31 32 32 32 33 33 33 33 33 33 34 34 34 34 34 36 37
28 29 29 30 31 32 32 33 34 34 35 35 35 35 34 35 35 34 33 32 32 31 30 31 31 32 33 34 34 35 36 36 36 36 37 37 37 37 37 38 38 38 38 38 38 39 39 40 40 40 39 38 37 35 34 33 32 32 32 31 32 32 32 32 32 32 32 32 32 32 32 32 32 32 32 32 32 32 32 33 33 34 34 35 36 38
28 29 30 31 31 31 32 33 34 34 35 35 35 35 35 35 35 33 32 31 30 30 30 31 32 33 34 35 35 36 36 36 37 37 37 37 37 38 38 38 38 38 38 38 38 38 38 38 39 40 40 39 38 36 35 35 34 34 33 32 32 32 33 33 33 33 34 34 33 33 32 32 32 31 31 31 31 31 32 32 33 33 34 35 36 37
28 29 31 31 30 31 31 32 33 34 34 34 34 35 35 34 33 32 31 30 31 31 32 33 33 34 34 35 35 35 36 36 37 37 37 38 38 38 38 38 38 38 38 38 37 37 37 37 38 39 41 40 39 38 36 35 34 33 33 32 32 32 33 33 34 34 35 34 34 33 32 32 32 32 32 31 31 31 31 32 32 33 34 34 35 36
29 29 31 30 29 30 31 32 32 33 33 33 33 33 32 31 31 31 31 32 32 33 33 34 34 34 34 34 34 35 36 36 37 37 37 37 37 37 37 37 37 37 37 36 36 36 36 36 37 38 40 41 40 38 37 35 34 33 33 33 33 33 33 33 34 34 35 35 34 33 32 32 31 31 31 31 31 30 31 31 32 32 33 34 35 36
30 30 30 29 28 28 29 30 31 31 32 32 31 31 31 31 31 32 32 33 33 34 34 33 33 33 33 33 34 35 35 36 36 36 36 36 35 35 35 35 35 35 35 35 35 35 35 35 36 37 39 39 39 38 37 35 34 34 34 34 34 34 34 34 34 34 35 34 34 33 32 31 30 30 29 29 29 30 30 31 31 32 33 34 35 36
29 29 28 27 27 27 28 29 30 30 30 30 30 31 31 31 32 33 33 33 33 33 33 33 32 31 31 32 32 33 34 34 34 34 33 33 33 32 32 32 32 32 33 33 33 33 33 34 35 36 37 37 37 37 36 36 35 35 35 35 35 35 35 35 35 35 35 34 33 32 31 30 28 27 26 26 27 28 29 30 31 32 33 34 35 36
26 27 26 26 26 28 29 30 30 30 30 29 29 30 31 31 32 33 34 33 33 32 31 30 29 29 29 30 31 32 32 32 31 31 30 30 30 30 30 31 31 31 32 32 32 33 33 33 34 34 35 36 36 36 36 37 37 37 37 37 37 37 36 36 35 35 35 33 31 30 29 27 26 24 24 24 25 26 27 28 29 31 32 33 34 35
22 24 26 27 28 28 29 30 30 30 29 29 29 29 30 30 31 32 33 32 30 28 27 27 28 29 29 31 31 31 31 31 30 30 30 30 30 30 30 31 32 32 33 33 33 33 33 33 33 34 35 35 36 37 37 37 37 37 37 37 36 35 35 34 34 34 33 30 28 27 26 25 24 24 24 25 26 27 27 28 29 30 31 33 34 35
23 25 26 28 29 28 27 27 28 28 28 29 30 30 30 29 29 29 29 28 27 26 26 27 28 29 31 32 31 31 30 31 31 31 31 31 32 32 33 33 33 34 34 34 34 34 33 33 33 34 34 35 35 35 35 34 34 34 33 32 31 30 29 29 30 29 27 26 24 24 24 25 25 26 27 27 28 28 29 29 29 29 30 31 33 34
25 26 26 27 27 27 26 26 27 29 29 30 30 31 30 29 28 25 21 21 23 25 26 27 28 29 30 31 31 30 30 30 30 31 31 32 32 33 33 33 33 33 32 32 31 31 31 31 31 31 32 32 32 31 31 31 31 30 29 28 27 27 27 27 27 27 26 25 24 24 25 26 27 28 29 29 30 30 30 30 29 29 29 30 31 33
23 24 24 23 23 23 24 26 28 29 29 28 26 25 27 28 28 25 19 16 19 24 26 27 29 30 30 30 30 30 30 29 29 29 29 29 28 28 27 27 26 26 26 25 25 25 25 26 26 27 29 30 31 31 32 32 31 30 29 29 29 29 29 30 30 29 29 28 28 27 28 28 29 29 30 30 30 30 30 30 30 29 29 30 31 32
22 21 21 21 21 21 23 25 26 27 26 25 20 16 19 25 26 23 20 20 21 24 26 28 30 31 31 30 30 30 30 29 29 28 26 25 23 22 22 22 23 23 22 22 23 24 25 25 26 28 29 31 32 33 33 33 33 32 31 31 31 31 31 31 31 31 31 30 30 29 29 29 29 29 30 30 31 31 31 30 30 30 29 29 30 31
20 19 18 17 18 20 23 24 23 22 23 24 23 22 23 23 22 21 21 21 24 27 28 29 29 30 30 30 30 30 29 27 26 24 22 20 20 20 21 22 23 23 24 24 25 27 27 28 29 30 31 32 32 33 32 32 32 32 31 31 31 31 31 31 31 31 31 31 31 30 30 30 30 30 30 30 30 31 31 31 30 30 30 29 30 30
16 15 11 10 12 17 23 24 24 23 25 25 24 23 21 22 22 21 21 22 25 28 29 29 28 29 29 30 29 28 26 23 21 20 19 21 22 23 23 24 25 26 27 27 28 29 29 30 30 30 31 32 32 32 32 32 32 31 31 31 30 30 30 31 31 31 30 30 31 31 31 31 30 30 30 30 31 31 31 31 31 31 30 30 30 30
16 13 9 9 11 16 24 26 26 25 25 24 22 19 19 20 22 24 24 24 26 27 24 18 16 19 24 28 27 23 20 19 19 20 22 25 26 26 26 26 27 28 28 28 29 29 30 30 30 30 30 31 32 32 32 32 31 31 30 30 30 30 30 30 30 30 30 30 31 31 31 31 31 31 31 31 31 31 32 32 31 31 31 31 31 31
16 14 11 11 12 17 26 27 25 23 21 20 20 21 22 24 26 27 26 26 24 21 16 11 9 10 11 18 20 19 18 21 23 24 25 26 28 28 28 27 27 28 29 29 29 30 30 30 29 29 29 30 31 31 32 31 30 30 29 29 29 29 29 29 30 30 31 31 31 31 31 31 31 31 32 32 32 32 32 32 32 32 32 32 32 32
19 19 17 14 15 20 26 25 22 20 21 21 23 26 28 28 29 28 27 26 22 16 11 10 9 8 8 7 14 22 24 25 26 25 24 25 27 29 29 28 28 28 29 30 30 30 30 30 29 29 29 30 31 31 32 32 31 31 30 29 29 28 29 29 30 31 32 32 31 31 31 31 31 32 32 32 32 32 33 33 33 33 32 32 32 32
23 24 22 20 21 24 24 22 22 23 24 25 27 28 28 29 29 28 27 26 24 20 15 11 10 9 8 9 17 27 28 28 26 23 22 22 27 31 31 29 28 28 29 30 30 30 29 28 28 27 27 28 29 30 30 31 31 31 30 29 28 28 29 30 31 31 32 32 32 32 32 32 32 32 32 32 32 33 33 33 33 33 33 32 32 32
25 26 26 25 24 23 22 23 25 26 27 28 29 29 28 28 28 27 26 26 27 26 23 16 11 11 14 19 25 30 30 27 25 22 20 21 26 30 30 28 26 27 28 29 28 27 26 25 23 23 24 27 28 29 30 31 31 30 29 28 28 29 29 30 31 31 32 33 33 33 33 33 33 33 33 33 33 33 33 33 34 34 33 33 33 32
26 27 28 27 24 22 21 24 27 29 30 31 30 29 28 27 26 26 26 27 26 25 22 16 13 16 21 24 28 31 30 26 22 20 18 19 24 28 29 27 25 25 24 24 24 23 23 23 24 24 26 28 29 31 31 31 31 30 29 29 29 30 30 31 32 32 33 34 34 34 34 34 34 34 34 34 34 34 34 34 34 34 34 34 34 33
27 27 28 28 26 25 25 28 30 31 31 30 29 27 26 25 24 24 26 26 25 23 21 19 21 26 28 30 32 31 28 25 22 19 16 13 17 24 28 25 22 21 21 23 24 24 23 24 25 27 28 30 31 31 31 31 30 30 29 30 30 30 31 31 32 34 34 35 35 35 35 35 35 35 35 35 35 35 35 35 35 35 35 34 34 34
28 27 27 27 26 27 27 28 29 30 29 28 29 29 29 29 28 28 29 28 27 26 26 27 30 33 33 32 30 28 25 22 20 17 13 10 13 20 26 24 23 22 23 24 24 24 24 24 26 27 29 31 32 32 31 31 29 28 27 28 28 29 30 32 33 34 34 35 35 35 35 35 35 35 35 35 35 35 35 35 35 35 35 35 34 34
27 27 27 26 26 26 26 26 29 31 31 31 31 32 32 32 33 33 33 32 31 30 29 30 31 31 31 29 26 23 21 19 19 17 12 8 12 20 25 23 20 20 21 23 23 23 24 26 27 28 29 29 30 29 29 27 26 25 25 26 27 29 30 31 32 33 34 35 36 36 37 37 37 36 36 36 36 36 36 35 35 35 34 34 34 34
26 27 27 27 28 29 32 34 35 36 36 35 34 33 33 33 33 32 31 30 29 29 28 26 22 20 21 22 21 19 20 20 19 17 14 8 10 18 24 21 18 18 20 23 24 24 25 26 27 27 26 25 25 25 24 23 23 23 24 26 27 28 30 31 32 34 35 37 38 38 38 38 37 37 36 36 36 36 35 35 34 34 34 34 34 34
28 29 30 32 34 36 38 39 40 40 39 37 35 34 33 32 31 30 28 27 26 25 23 17 12 11 14 15 15 17 21 21 18 16 15 10 9 14 21 21 20 21 22 24 24 24 23 24 23 23 22 23 24 24 24 24 24 25 25 25 26 28 30 31 33 34 35 36 37 38 38 38 37 36 36 35 35 35 34 34 33 33 33 33 33 33
30 32 34 35 37 38 38 38 38 38 38 36 35 34 32 31 29 25 23 23 23 21 16 13 11 11 10 9 10 15 22 21 18 16 16 14 10 10 17 21 21 20 20 21 22 21 20 21 21 23 24 26 26 26 25 24 23 23 23 24 26 27 29 30 32 34 36 37 38 39 38 38 37 35 35 34 34 33 33 33 33 33 33 32 32 32
31 32 34 34 35 35 35 35 35 35 34 34 34 33 31 29 24 19 17 21 23 20 13 12 11 10 9 8 11 18 24 22 20 18 17 15 9 8 15 18 19 17 18 19 21 22 22 23 24 26 27 26 24 22 20 20 20 20 22 23 24 27 29 32 34 37 39 40 40 39 38 37 35 34 33 32 32 32 32 31 31 31 31 30 30 30
32 32 32 32 32 32 32 32 32 32 31 31 31 30 29 26 23 20 21 24 24 20 13 11 10 10 10 10 14 20 22 21 19 17 14 12 9 9 16 16 16 17 17 17 18 20 22 22 22 22 21 19 16 15 15 16 18 19 21 23 26 30 33 36 38 39 40 39 38 36 34 33 31 30 30 29 29 28 28 27 26 26 27 26 26 26
31 31 30 29 29 28 28 28 29 29 29 29 29 28 27 25 23 23 25 26 25 19 11 10 10 10 11 11 12 13 13 15 14 12 11 8 7 11 16 17 18 19 17 12 9 9 12 16 17 16 14 13 14 15 16 17 18 19 21 25 29 33 35 37 38 39 38 35 32 30 28 27 26 26 25 24 23 22 21 20 19 19 18 18 18 19
30 29 28 28 27 27 26 26 26 26 27 27 26 26 25 23 23 23 25 26 24 19 15 13 12 13 12 10 9 7 5 13 15 14 13 10 10 14 18 17 18 19 17 12 7 5 6 8 13 15 13 15 17 19 19 19 19 19 21 24 28 31 33 35 36 36 33 27 22 21 21 21 21 21 20 19 18 16 15 14 13 13 13 13 12 11
29 28 27 27 26 26 25 25 25 25 24 24 23 23 23 23 23 24 25 24 23 21 21 19 19 18 17 13 10 8 8 17 20 19 17 13 14 17 19 17 17 18 18 16 11 6 6 5 10 16 18 19 20 21 22 20 19 19 21 23 26 28 31 33 34 32 24 13 4 2 4 6 8 10 11 12 12 13 14 15 16 17 17 17 16 16
28 27 26 26 26 25 25 24 24 24 23 23 22 22 22 22 23 24 24 24 24 24 24 23 22 21 20 17 14 13 16 21 23 21 18 16 15 16 18 18 17 17 17 18 16 12 9 6 8 14 18 20 20 20 20 19 18 19 21 22 24 27 30 32 31 25 15 9 14 17 15 14 13 12 12 12 13 15 17 18 20 21 21 22 21 21
27 26 26 26 26 25 25 24 24 24 23 23 23 23 23 23 23 23 23 23 23 24 25 25 24 23 20 15 12 14 21 24 24 22 20 18 17 17 19 18 17 16 15 13 14 14 11 9 8 8 11 16 19 19 19 17 18 19 20 21 21 24 28 29 26 19 10 9 17 22 22 22 21 20 19 18 17 17 17 18 20 22 24 25 26 25
26 26 25 25 25 24 24 24 24 23 24 23 24 24 24 24 23 23 22 23 23 24 26 28 28 27 25 17 12 13 20 25 26 24 23 21 20 19 19 17 17 16 12 9 8 8 7 8 9 8 7 11 15 18 17 16 16 18 19 20 20 22 25 26 23 16 7 8 17 21 23 23 23 22 21 20 19 18 18 18 19 21 24 26 27 28
25 25 25 24 24 24 24 24 24 24 24 24 23 24 24 24 24 25 25 25 26 27 29 29 30 30 28 25 21 20 24 28 28 26 26 25 23 21 18 17 18 16 11 8 7 6 6 7 9 10 10 8 9 12 14 14 14 16 17 19 20 22 22 22 19 13 5 8 16 22 23 23 24 24 23 23 22 22 22 21 21 22 22 23 25 27
24 24 24 24 23 23 24 24 24 24 24 24 24 24 25 25 26 27 27 28 29 30 31 31 30 29 27 26 26 27 29 30 29 28 28 27 26 23 20 20 20 18 14 11 9 8 7 7 8 9 9 8 7 7 8 11 12 13 14 16 19 20 19 17 14 10 4 9 17 21 23 23 22 23 23 23 24 25 25 24 24 23 23 23 24 25
23 23 23 23 23 23 23 24 24 24 24 25 25 26 26 27 28 28 28 29 30 30 30 29 28 26 25 26 27 29 31 32 32 31 30 29 28 25 23 22 20 19 17 16 14 11 7 7 8 8 7 7 7 9 11 12 12 13 13 15 17 17 14 12 11 8 6 11 16 20 21 21 21 21 21 22 23 24 24 24 24 24 25 25 25 26
22 22 23 23 23 23 23 24 24 25 26 26 27 28 28 28 28 29 28 28 28 28 28 27 25 24 25 26 28 30 31 31 32 31 30 28 26 25 23 21 20 19 18 17 16 14 10 8 7 7 7 7 8 11 13 12 12 12 13 14 14 13 10 8 8 8 7 10 15 18 19 20 20 20 20 20 21 21 20 21 21 22 24 25 26 26
22 23 23 24 24 24 24 25 26 27 28 28 28 28 28 27 27 27 27 27 26 25 25 25 24 23 24 26 27 27 27 28 29 29 28 27 25 24 22 21 20 18 17 16 16 15 13 10 9 9 8 7 7 8 9 12 12 11 11 9 8 7 7 6 7 8 8 10 14 16 18 19 19 19 19 19 19 19 18 18 19 19 20 22 23 23
23 23 23 24 24 25 25 26 27 28 28 29 28 28 27 26 26 26 26 26 25 24 23 23 23 23 23 23 23 24 24 25 26 26 26 25 23 20 20 19 18 17 16 15 15 15 15 14 12 11 11 10 9 9 9 12 12 11 9 5 4 5 6 6 7 8 9 11 13 15 17 18 18 18 18 18 18 18 18 18 18 18 18 19 20 19
23 23 23 24 25 26 26 27 27 28 28 27 27 26 25 25 25 25 26 26 24 22 21 21 22 22 22 23 22 21 21 21 22 22 21 20 18 17 17 16 16 15 15 14 15 15 15 15 14 14 13 12 10 8 9 11 12 10 7 4 3 3 4 5 6 8 9 11 13 15 17 17 18 18 18 19 18 18 18 19 19 18 18 17 17 18
23 24 24 25 26 27 27 27 27 27 26 26 25 25 25 25 26 26 26 23 22 21 21 21 21 21 20 20 20 20 20 19 19 17 15 14 14 15 15 15 15 14 14 13 13 14 15 16 15 16 16 15 13 9 8 9 8 6 3 1 1 1 1 3 5 8 10 12 14 15 17 17 18 19 19 19 19 19 19 19 19 19 18 18 18 19
24 25 26 26 26 27 27 26 26 26 25 25 25 25 25 26 26 26 24 21 21 21 21 21 21 19 18 17 17 17 17 16 15 13 11 11 12 13 13 13 13 13 13 12 12 12 13 14 14 15 16 15 14 11 9 7 5 2 2 1 0 1 2 2 3 7 11 13 15 16 18 19 20 21 21 21 21 20 21 21 20 20 20 21 21 21
25 25 26 26 26 26 25 25 25 25 25 24 24 24 26 26 26 24 21 21 21 22 21 20 19 15 11 12 14 14 14 13 11 9 9 10 11 11 10 11 11 11 11 12 12 11 11 11 12 13 13 13 13 12 9 6 3 2 3 3 3 3 3 2 4 8 11 13 15 16 18 20 22 22 21 20 20 21 21 21 21 21 21 21 22 22
24 25 25 25 25 25 25 26 26 26 25 24 24 25 26 26 24 22 21 21 21 21 21 20 16 11 8 9 11 12 11 10 9 8 7 8 10 10 10 10 10 10 11 11 11 11 11 10 11 11 11 10 9 8 6 3 2 3 3 4 5 5 4 4 5 8 12 13 15 16 19 21 22 20 18 17 18 20 21 21 21 20 20 21 22 22
24 25 25 25 25 25 25 26 26 25 25 24 25 25 25 25 23 22 22 22 21 20 20 19 15 12 9 9 10 9 8 8 8 9 9 9 9 10 10 10 10 10 10 10 10 9 9 8 8 9 7 6 4 1 1 2 3 4 4 5 5 5 4 4 5 8 12 14 15 16 19 20 19 17 16 16 17 18 20 21 21 21 21 21 22 23
25 25 25 25 25 25 25 25 25 24 24 24 25 26 26 24 23 22 22 22 20 19 18 16 13 11 10 11 11 10 8 7 8 9 9 10 10 10 10 10 10 10 10 9 8 7 6 6 7 7 6 5 2 1 2 3 4 4 5 5 6 6 4 4 5 9 12 14 16 17 18 18 16 15 14 14 14 15 16 19 21 21 21 22 23 23
25 25 25 24 24 24 24 24 24 24 24 25 25 25 25 24 23 22 21 20 19 17 15 14 11 9 8 9 10 10 9 8 8 9 9 10 11 11 11 11 10 10 9 8 7 6 4 5 9 12 12 9 6 3 3 3 4 5 6 6 6 6 5 5 7 10 14 15 16 17 17 16 16 16 15 13 12 11 14 16 19 20 21 22 22 23
25 25 25 24 24 23 24 24 24 24 24 24 25 24 24 23 22 21 20 19 17 16 14 13 11 9 7 7 8 9 8 8 8 8 9 10 11 11 11 10 10 8 7 6 5 5 3 2 6 11 14 14 11 7 4 4 5 6 7 6 6 6 6 6 8 11 15 17 18 19 18 17 16 16 16 14 11 11 12 14 15 17 19 21 21 22
25 25 25 24 24 24 24 24 24 24 24 24 24 23 21 20 20 20 19 18 16 15 14 13 12 10 7 7 8 8 8 7 7 8 10 11 11 11 11 10 9 8 5 3 2 2 2 1 1 6 10 15 15 12 8 5 4 5 6 6 6 7 7 7 9 13 16 18 19 19 19 17 16 16 15 13 11 9 9 10 11 14 17 19 20 21
Wind_Direction
293 294 295 297 297 297 297 297 298 298 298 298 298 298 298 298 297 297 296 295 294 293 292 291 291 291 291 291 291 291 290 290 289 288 288 288 287 287 286 286 285 284 284 283 281 280 280 280 281 282 283 283 283 283 282 281 280 279 279 279 278 277 276 275 275 276 276 276 275 274 272 270 268 266 264 263 262 262 260 259 256 254 252 252 253 256
294 295 296 297 297 297 296 296 297 297 297 298 298 298 298 298 297 297 296 295 294 293 292 292 292 293 293 293 292 292 291 290 289 288 287 286 285 284 283 282 282 281 280 279 278 277 278 279 280 281 282 282 283 282 282 281 280 279 279 278 277 276 275 275 275 275 275 274 273 272 271 270 268 266 265 263 262 261 261 260 259 256 252 250 249 250
297 296 296 297 296 295 295 296 297 297 297 297 297 297 297 297 296 296 295 295 294 293 293 293 294 294 293 293 292 291 290 289 288 287 286 285 284 284 283 282 281 280 279 277 276 275 276 277 279 280 281 282 283 283 282 281 280 279 278 277 276 275 274 274 274 275 275 273 271 269 268 268 267 266 265 263 262 261 260 259 258 257 255 252 249 248
295 295 296 296 295 294 294 296 298 298 298 297 296 296 296 296 295 295 295 295 295 294 294 294 294 293 293 292 290 289 289 288 287 286 286 285 284 284 283 282 281 280 279 278 277 275 275 275 277 279 280 281 282 282 282 281 280 279 277 276 275 274 273 274 274 275 275 274 271 268 266 265 265 265 264 263 262 260 259 258 256 256 255 253 251 249
293 293 293 294 294 294 295 297 298 299 298 297 296 296 296 296 296 296 296 296 296 295 295 294 293 292 291 290 289 288 288 287 286 286 285 284 284 283 283 282 282 281 280 280 279 277 276 275 275 276 278 279 281 281 281 280 279 279 278 276 275 274 274 274 275 275 275 274 271 268 265 263 263 263 263 263 262 261 259 257 255 254 253 252 251 250
294 292 292 291 292 293 296 298 299 299 299 298 297 296 296 297 297 297 297 296 296 295 294 293 292 290 289 288 288 288 288 287 287 286 285 285 284 284 283 283 283 282 281 281 280 279 277 276 275 275 276 278 279 280 280 280 279 279 278 277 276 275 275 275 275 275 274 272 269 266 264 262 261 261 262 262 262 262 261 258 256 253 252 251 251 250
296 294 293 292 292 294 297 299 300 300 299 298 297 297 297 297 296 296 295 295 294 293 292 291 289 288 288 288 289 290 290 290 289 288 287 286 286 285 284 284 283 283 282 281 280 279 278 277 276 276 276 277 278 279 280 280 280 279 279 278 277 276 276 276 276 275 273 270 266 263 260 259 259 259 260 262 262 262 261 260 257 255 253 252 251 250
297 296 296 296 297 299 299 299 299 298 298 297 297 298 297 297 296 294 293 292 291 290 289 289 289 289 290 292 293 293 292 292 291 291 290 289 288 287 286 285 285 284 284 283 282 281 280 279 278 278 278 278 279 280 281 281 281 280 279 278 277 276 276 275 275 274 271 266 262 259 256 255 256 257 260 262 264 264 263 261 259 257 255 253 252 250
293 295 296 297 299 300 300 298 297 296 296 296 296 296 296 295 294 293 292 290 288 287 287 288 290 292 294 295 295 294 293 292 291 291 290 290 289 288 287 286 286 285 284 283 282 281 280 280 279 279 279 280 280 281 282 282 282 281 279 278 276 275 273 273 273 271 267 262 258 255 254 254 256 259 263 265 266 266 265 263 261 258 256 254 252 251
291 293 294 295 295 295 295 295 294 294 294 293 293 292 291 291 291 291 289 287 286 285 286 289 293 296 297 297 296 294 293 291 290 289 289 288 287 286 285 285 284 282 281 280 279 278 278 278 278 278 279 280 282 283 283 283 282 281 279 277 276 274 272 271 271 268 264 261 258 256 256 257 260 264 266 267 268 267 266 265 263 260 257 255 253 252
295 295 294 293 293 293 292 292 293 295 295 293 291 289 288 287 287 288 287 286 285 287 289 292 295 297 298 297 296 294 293 291 290 289 288 287 286 285 284 283 282 281 280 280 279 278 278 277 277 278 280 281 282 283 284 284 283 282 281 280 279 278 276 275 274 272 270 268 266 264 263 263 264 266 267 267 267 266 265 264 263 260 258 256 254 253
296 296 294 294 295 295 295 295 296 296 296 294 291 290 288 288 287 287 286 286 288 291 294 296 297 297 296 295 294 293 292 290 289 289 288 287 287 287 288 288 288 288 287 288 289 288 285 284 283 283 283 283 283 283 283 282 281 282 282 281 281 279 278 277 275 274 273 272 270 268 266 266 266 265 265 266 266 265 264 263 262 260 258 256 254 253
290 290 291 293 295 298 299 299 299 297 295 292 289 288 290 291 291 289 287 288 291 295 298 299 299 297 295 293 292 291 290 289 288 288 288 288 289 292 294 295 296 296 296 296 296 293 291 289 288 286 285 283 282 280 279 278 278 278 278 278 277 275 274 273 272 271 270 270 269 268 267 266 265 265 265 265 265 265 264 263 262 260 258 256 254 253
286 286 289 293 297 299 300 299 297 294 291 289 288 288 291 293 293 292 291 292 295 298 300 300 298 297 294 292 291 290 289 288 288 288 288 288 290 293 295 295 294 294 295 295 293 291 290 289 288 286 284 281 280 278 276 275 275 275 275 274 273 272 270 269 268 268 267 268 268 268 268 267 267 266 265 265 265 264 264 263 262 260 258 256 254 253
285 288 292 295 298 299 299 297 294 290 287 287 288 291 294 295 296 297 297 297 299 300 300 298 296 294 293 292 291 290 288 288 289 291 292 293 296 297 298 297 296 295 295 293 291 290 289 287 286 284 282 280 279 277 276 275 275 275 275 274 272 270 269 268 267 267 267 268 269 269 270 269 269 268 267 266 266 265 264 263 261 260 259 257 256 254
290 295 297 298 298 299 299 296 292 288 286 288 291 296 299 300 301 300 299 299 299 299 298 296 293 292 291 292 292 290 288 290 294 297 299 299 299 299 300 300 298 296 294 292 290 289 288 286 284 282 281 279 278 277 277 276 276 276 275 274 272 270 269 268 268 268 268 269 270 270 270 270 270 270 269 268 266 265 264 263 261 260 259 258 257 255
298 301 300 298 297 298 298 294 289 286 288 294 300 303 303 302 300 298 297 296 295 295 293 289 287 288 290 292 291 291 295 299 302 302 301 299 298 299 300 299 297 294 292 291 289 288 287 285 283 281 280 279 278 277 277 277 276 275 274 272 271 270 269 269 269 269 270 270 270 270 270 270 270 270 269 268 267 265 264 263 261 260 259 258 257 256
302 302 301 298 297 298 296 292 288 289 296 302 305 304 302 299 297 295 293 292 292 291 288 285 283 283 285 283 289 294 300 303 303 301 299 296 296 297 298 296 294 291 290 288 287 286 285 283 281 279 278 278 278 278 278 277 276 275 272 270 269 268 269 270 271 271 271 271 271 271 270 270 270 269 268 267 266 265 264 263 261 260 258 257 256 255
299 298 298 297 297 296 292 289 290 296 301 304 304 302 299 296 294 292 291 290 290 288 286 282 277 274 275 279 291 296 301 301 300 296 294 293 294 295 296 294 291 288 287 286 285 284 282 280 278 277 277 278 280 281 281 280 278 275 272 270 269 270 271 272 273 273 274 273 273 272 272 271 271 270 268 267 266 265 264 263 262 261 259 257 255 254
294 294 294 295 294 292 289 290 294 298 301 301 300 297 294 291 290 289 288 288 287 284 281 278 274 274 281 288 293 297 300 299 296 292 291 292 293 294 294 292 289 286 284 283 283 282 282 282 283 283 284 284 284 285 285 285 283 279 276 274 274 275 275 275 276 276 276 275 275 274 273 272 271 270 268 267 266 265 264 263 262 261 259 257 255 254
291 291 291 291 290 288 289 292 295 297 298 298 297 294 290 287 287 287 287 287 285 282 278 278 280 285 290 293 295 296 296 293 291 290 292 292 292 292 292 290 287 283 280 279 280 281 284 287 289 289 288 286 285 284 284 283 282 281 280 279 280 280 280 279 278 278 277 277 276 275 274 273 271 270 268 267 266 265 263 263 262 260 259 258 256 254
288 288 288 288 286 286 289 291 293 295 297 297 295 291 289 289 289 290 289 288 286 285 286 287 289 292 293 293 291 290 288 286 287 290 292 290 289 290 291 290 285 281 279 280 282 285 287 288 289 289 288 286 283 281 279 278 278 278 279 280 281 281 281 280 280 279 279 278 277 276 275 273 271 270 268 267 265 264 263 262 261 260 258 257 256 254
285 285 286 286 286 287 289 291 294 297 298 296 293 291 291 292 292 292 292 291 290 290 291 292 293 292 291 288 285 283 282 284 288 290 290 284 285 289 291 291 288 285 283 284 286 288 289 290 290 289 288 286 284 281 279 277 277 277 277 279 280 281 281 282 282 281 280 279 278 277 275 273 271 270 268 266 265 263 262 261 259 258 257 256 255 253
287 286 287 288 289 291 294 296 298 299 298 295 293 291 290 290 289 289 289 289 289 290 291 292 291 289 286 282 280 280 284 290 292 290 285 279 283 287 290 290 289 286 285 286 288 291 292 291 290 289 288 286 284 282 280 278 277 277 279 280 282 283 283 283 283 282 282 281 279 277 275 273 271 269 267 265 264 262 260 259 258 257 255 254 253 251
292 292 292 293 295 297 298 298 297 296 295 294 292 291 290 289 288 287 286 286 287 288 289 288 286 283 282 281 282 286 291 295 294 289 281 278 281 285 287 288 288 287 287 288 291 292 292 291 289 288 286 285 285 285 285 285 285 284 283 283 284 284 284 285 285 285 285 284 282 279 277 274 271 269 266 264 262 260 259 257 255 254 253 252 251 250
298 298 299 299 299 298 297 295 294 293 292 291 291 290 290 290 290 289 288 287 288 288 288 283 276 275 281 286 290 294 297 299 295 286 278 279 282 285 287 288 289 289 289 290 291 292 291 290 289 289 289 290 291 292 292 291 290 288 285 284 284 285 287 289 291 291 291 289 286 282 279 275 272 269 266 263 261 259 257 255 253 252 251 250 250 250
303 302 301 300 298 296 295 294 293 292 292 291 290 289 290 291 291 290 288 289 290 290 286 280 280 284 290 293 296 298 300 299 295 287 281 280 280 283 287 290 290 290 290 291 292 292 293 293 294 294 293 291 289 288 287 285 284 283 284 285 288 291 294 297 298 297 296 293 289 285 280 276 272 269 266 263 261 258 256 254 253 252 251 251 251 251
306 304 301 299 297 296 295 294 294 293 292 292 291 291 290 290 290 289 290 293 293 291 283 282 286 294 299 299 299 299 299 296 292 289 286 283 279 281 288 292 293 293 293 293 294 294 293 292 291 290 287 285 283 283 284 285 286 287 289 293 297 300 301 301 301 300 298 295 291 286 281 276 273 269 266 263 261 259 257 256 255 254 254 253 251 250
307 304 302 299 298 297 296 296 295 294 293 293 292 292 290 289 287 288 291 292 291 287 281 283 291 299 302 302 299 297 295 292 290 291 293 289 282 284 291 295 296 295 296 297 296 295 292 290 287 285 283 285 289 296 300 300 299 299 299 301 302 303 303 302 302 301 299 295 290 284 279 275 271 268 265 263 261 260 258 257 256 255 253 250 246 244
309 307 304 302 301 299 298 297 296 295 294 293 292 291 289 287 285 285 287 287 286 285 285 294 300 303 303 300 296 292 289 290 294 301 306 299 289 289 294 295 294 294 297 298 298 295 292 291 290 290 292 302 310 312 310 307 304 302 302 303 303 302 302 303 303 303 300 295 288 281 275 271 268 264 262 260 258 257 255 252 248 242 237 231 229 229
310 308 306 304 303 302 300 298 297 295 294 293 291 290 289 287 285 284 284 285 287 291 299 304 304 301 298 294 289 285 285 292 299 307 310 301 291 290 293 292 291 291 293 293 294 296 297 295 295 297 303 308 309 306 303 301 299 298 299 301 302 302 303 305 306 307 304 298 287 276 270 265 260 256 253 250 247 242 236 226 213 199 186 178 175 176
309 308 305 304 303 302 301 299 297 296 294 293 292 291 290 289 287 286 285 287 292 298 303 302 298 293 289 283 279 279 285 292 297 303 306 298 290 289 290 289 289 290 290 287 285 289 296 298 296 296 298 299 299 297 296 294 293 294 296 300 301 303 305 308 309 310 312 320 322 270 254 238 229 223 218 213 207 199 190 181 171 159 148 141 132 123
308 306 304 303 303 302 300 299 297 296 295 295 295 295 294 292 289 287 286 289 293 295 295 293 291 288 285 281 277 278 283 290 296 301 302 298 292 289 289 289 289 290 290 286 282 279 281 286 294 295 295 294 294 293 293 291 290 292 295 299 302 304 308 310 311 313 324 37 76 83 84 88 97 109 121 131 140 147 150 151 150 147 142 134 125 117
307 305 304 303 303 302 300 299 299 299 299 299 299 299 298 295 292 289 288 289 289 288 287 286 285 284 284 282 279 280 284 290 295 300 300 297 292 289 290 289 288 288 289 286 283 281 279 280 287 293 294 294 294 293 292 290 290 292 296 301 304 306 309 312 313 314 327 54 76 79 78 78 80 84 90 97 105 115 123 129 133 136 136 130 125 120
306 305 304 304 303 303 302 302 302 302 302 301 301 301 300 299 297 295 294 292 289 286 285 283 281 280 280 280 281 285 289 293 295 297 295 291 288 287 288 287 286 287 287 284 283 282 280 281 285 289 294 295 294 293 291 288 289 293 300 304 307 309 310 312 314 314 328 63 80 81 80 77 77 77 79 83 89 95 102 109 115 121 125 125 124 122
306 305 305 305 305 305 305 305 305 304 304 304 303 303 302 301 300 299 297 295 292 289 286 281 277 275 274 274 278 285 289 292 293 292 289 286 285 285 285 285 285 285 284 282 280 278 281 284 287 288 289 290 292 292 290 290 295 301 305 309 310 310 310 313 316 321 343 76 85 84 83 81 79 78 79 81 84 87 92 95 100 106 111 115 118 119
306 305 305 305 306 306 306 306 306 306 306 306 305 304 303 301 300 299 296 293 290 288 286 281 276 274 273 274 277 281 285 288 289 287 285 283 282 282 282 283 283 282 279 278 278 280 282 285 286 286 284 282 285 290 294 299 303 306 308 310 311 310 309 315 324 336 19 83 89 88 87 85 83 82 82 83 83 85 87 89 92 95 99 102 106 110
305 305 305 306 306 306 306 307 307 307 306 306 305 304 302 300 298 296 294 291 288 285 282 280 278 277 277 278 279 280 283 284 284 283 283 282 281 280 279 280 280 278 275 274 276 279 281 283 284 284 282 280 282 287 294 301 304 304 305 309 309 307 307 320 336 356 52 86 90 90 89 88 86 85 85 84 84 83 83 84 86 89 92 94 97 100
305 305 305 306 307 306 306 306 306 306 306 304 303 302 300 298 296 294 292 289 286 283 280 280 281 282 283 283 283 283 283 284 284 284 283 281 279 278 277 277 277 276 274 273 273 274 274 276 277 279 282 284 285 288 291 294 296 299 303 306 305 302 305 326 348 7 48 81 89 90 89 89 88 86 84 84 83 82 81 82 84 88 90 92 92 94
305 305 305 306 306 306 306 305 305 305 304 303 302 301 300 298 297 297 295 292 288 285 283 284 286 288 288 287 286 285 284 284 284 284 283 281 278 276 276 275 275 275 274 272 270 269 269 269 270 272 275 280 284 287 288 288 289 293 298 302 306 311 320 344 2 17 49 76 87 91 91 90 87 85 83 82 81 82 83 83 85 88 90 92 94 94
305 305 305 306 306 305 305 304 304 303 303 303 303 303 302 300 300 300 299 297 293 289 289 292 295 295 293 290 287 285 284 283 284 284 283 281 278 275 275 273 273 274 274 272 269 267 265 266 267 270 271 273 276 279 280 281 282 283 285 287 303 319 327 354 15 33 55 74 85 91 93 91 88 85 82 81 81 82 85 86 86 86 87 90 94 97
305 305 305 306 306 306 306 305 304 304 304 304 303 303 303 302 302 301 300 298 296 295 297 301 302 301 297 294 291 288 286 284 283 284 283 282 279 276 274 274 274 274 274 273 270 268 265 264 265 266 267 268 270 272 273 276 277 274 270 274 292 311 324 359 33 56 66 75 84 91 93 92 89 86 84 82 81 82 84 86 87 86 85 84 86 89
306 306 305 306 306 306 306 306 305 305 305 305 304 303 302 302 302 301 299 296 296 299 303 305 304 301 298 296 295 293 291 287 286 285 283 280 279 278 278 277 277 276 275 274 272 270 268 266 264 263 264 264 265 268 272 275 272 262 234 213 247 271 298 348 36 71 81 85 88 91 93 93 92 90 87 84 82 81 81 82 84 86 87 88 87 87
306 306 306 306 306 306 306 306 306 307 306 305 304 303 303 302 301 299 297 296 299 304 307 307 304 300 296 295 295 295 294 292 291 289 283 282 283 284 282 280 280 278 276 273 272 273 273 270 267 265 264 264 265 266 267 267 256 221 141 131 189 317 338 348 60 83 90 92 92 93 95 96 95 92 88 83 80 79 78 79 80 83 87 91 93 93
306 306 307 307 307 307 307 306 307 307 306 305 304 303 304 303 301 299 298 300 305 308 308 307 304 301 297 296 297 297 297 297 296 292 287 288 289 289 286 284 283 283 280 275 273 273 275 276 276 274 272 267 263 261 259 250 218 152 109 93 74 49 28 46 93 101 99 97 95 95 98 99 97 92 87 81 76 75 74 75 76 79 84 89 92 94
308 308 308 308 308 307 307 307 308 308 308 307 306 305 305 304 303 301 302 306 309 310 308 306 302 298 295 297 299 300 300 303 304 301 297 294 293 292 290 288 288 290 289 285 281 278 277 279 284 285 281 271 261 256 253 222 155 125 105 98 90 80 71 72 91 104 107 104 101 101 101 101 97 92 86 81 75 73 73 74 74 76 81 87 91 94
309 309 308 308 308 307 307 308 309 309 309 309 308 307 306 305 304 305 309 311 311 309 307 304 300 296 294 296 299 301 304 308 310 310 309 306 303 300 296 294 293 294 295 294 293 293 291 295 300 300 293 281 270 273 48 88 105 114 115 111 104 94 77 61 79 99 108 108 107 106 105 102 97 93 90 86 80 75 72 73 75 78 82 86 90 94
309 309 308 308 308 308 308 309 310 310 310 310 309 308 308 307 308 310 313 314 311 307 305 303 301 298 297 299 300 304 309 312 314 314 314 314 312 310 306 302 300 298 296 296 297 302 317 346 360 360 351 339 337 25 60 72 85 97 104 107 106 100 87 67 77 94 103 106 107 108 107 103 101 100 98 93 86 78 72 71 74 79 84 88 91 94
309 308 308 308 308 307 308 309 310 310 310 310 309 308 309 309 311 314 314 313 310 306 304 303 303 302 300 302 306 311 315 317 318 318 318 319 318 317 314 311 306 300 293 286 284 287 310 15 34 37 35 27 20 24 51 69 78 84 89 94 98 98 93 81 82 91 98 101 103 103 102 102 103 105 103 98 92 84 77 72 74 79 85 90 93 95
308 308 308 308 308 308 308 308 309 310 308 308 308 308 309 311 315 316 315 312 309 306 306 305 305 305 304 308 315 320 325 326 324 323 323 323 323 321 319 316 313 305 291 274 264 260 260 351 38 43 43 41 37 35 38 59 78 84 84 84 89 94 94 87 86 90 96 98 99 99 98 97 99 101 101 99 95 90 84 76 73 77 85 90 93 95
309 309 308 308 308 308 307 308 308 308 307 307 306 307 309 313 316 317 316 313 310 309 309 309 310 310 312 317 323 327 331 330 329 327 326 326 326 324 322 321 319 313 300 278 255 246 243 241 35 40 39 39 40 41 40 44 71 88 85 79 82 89 92 89 88 91 94 96 98 98 97 95 94 96 97 99 98 94 88 81 74 75 84 90 93 94